Starlink 6186

operational
NORAD ID: 56908 Int'l Des: 2023-083 Owner: SPXS Country: US Constellation: starlink
LEOCIRCULAR

About Starlink 6186

Description loading...

Live Position

Loading 3D Globe...

Upcoming Passes

Altitude History

Altitude vs Time

uPlot chart will show altitude changes over time

Two-Line Element Set

1 56908U 23083AJ 25305.96045109 .00000104 00000-0 22774-4 0 9994
2 56908 43.0034 43.0764 0001226 270.5188 89.5514 15.02535372132607
Epoch: Nov 1, 2025 • Age: 23 hours

Current Status

Altitude 567.8 km
Velocity 7.58 km/s
Sub-Earth Point -33.26°S, 116.59°W
Launch Date Jun 12, 2023
Age 2.3 years
Type internet

Technical Details

Classification Payload
Mass 305.00 kg
Dry Mass 290.00 kg
Total Mass 305.00 kg
Length 0.20 m
Diameter 2.80 m
Span 9.00 m
Shape Box + pan
Manufacturer SPXS
Bus Type Starlink
Phase Status In Orbit
Owner/State SPXS/US

Large Constellations

Loading constellations...